Year,Month,Day,Hour,Minute,Value (Times are PST for temperature in C)
2007,07,06,00,00,16.80
2007,07,06,00,01,16.80
2007,07,06,00,02,16.80
2007,07,06,00,03,16.70
2007,07,06,00,04,16.70
2007,07,06,00,05,16.80
2007,07,06,00,06,16.80
2007,07,06,00,07,16.90
2007,07,06,00,08,16.90
2007,07,06,00,09,17.00
2007,07,06,00,10,17.00
2007,07,06,00,11,17.10
2007,07,06,00,12,17.10
2007,07,06,00,13,17.20
2007,07,06,00,14,17.30
2007,07,06,00,15,17.30
2007,07,06,00,16,17.40
2007,07,06,00,17,17.40
2007,07,06,00,18,17.50
2007,07,06,00,19,17.50
2007,07,06,00,20,17.60
2007,07,06,00,21,17.60
2007,07,06,00,22,17.60
2007,07,06,00,23,17.60
2007,07,06,00,24,17.70
2007,07,06,00,25,17.70
2007,07,06,00,26,17.70
2007,07,06,00,27,17.80
2007,07,06,00,28,17.80
2007,07,06,00,29,17.90
2007,07,06,00,30,17.90
2007,07,06,00,31,17.90
2007,07,06,00,32,18.00
2007,07,06,00,33,18.00
2007,07,06,00,34,18.00
2007,07,06,00,35,18.00
2007,07,06,00,36,18.00
2007,07,06,00,37,17.90
2007,07,06,00,38,17.90
2007,07,06,00,39,17.90
2007,07,06,00,40,17.80
2007,07,06,00,41,17.80
2007,07,06,00,42,17.70
2007,07,06,00,43,17.70
2007,07,06,00,44,17.70
2007,07,06,00,45,17.60
2007,07,06,00,46,17.60
2007,07,06,00,47,17.60
2007,07,06,00,48,17.60
2007,07,06,00,49,17.60
2007,07,06,00,50,17.50
2007,07,06,00,51,17.50
2007,07,06,00,52,17.40
2007,07,06,00,53,17.40
2007,07,06,00,54,17.30
2007,07,06,00,55,17.30
2007,07,06,00,56,17.20
2007,07,06,00,57,17.20
2007,07,06,00,58,17.10
2007,07,06,00,59,17.00
2007,07,06,01,00,17.00
2007,07,06,01,01,16.90
2007,07,06,01,02,16.80
2007,07,06,01,03,16.70
2007,07,06,01,04,16.60
2007,07,06,01,05,16.50
2007,07,06,01,06,16.50
2007,07,06,01,07,16.40
2007,07,06,01,08,16.40
2007,07,06,01,09,16.40
2007,07,06,01,10,16.40
2007,07,06,01,11,16.30
2007,07,06,01,12,16.30
2007,07,06,01,13,16.30
2007,07,06,01,14,16.30
2007,07,06,01,15,16.20
2007,07,06,01,16,16.20
2007,07,06,01,17,16.20
2007,07,06,01,18,16.20
2007,07,06,01,19,16.20
2007,07,06,01,20,16.20
2007,07,06,01,21,16.20
2007,07,06,01,22,16.20
2007,07,06,01,23,16.20
2007,07,06,01,24,16.10
2007,07,06,01,25,16.20
2007,07,06,01,26,16.20
2007,07,06,01,27,16.30
2007,07,06,01,28,16.40
2007,07,06,01,29,16.40
2007,07,06,01,30,16.50
2007,07,06,01,31,16.60
2007,07,06,01,32,16.70
2007,07,06,01,33,16.70
2007,07,06,01,34,16.80
2007,07,06,01,35,16.80
2007,07,06,01,36,16.90
2007,07,06,01,37,16.90
2007,07,06,01,38,16.90
2007,07,06,01,39,16.90
2007,07,06,01,40,17.00
2007,07,06,01,41,17.00
2007,07,06,01,42,17.00
2007,07,06,01,43,17.00
2007,07,06,01,44,17.00
2007,07,06,01,45,17.00
2007,07,06,01,46,17.00
2007,07,06,01,47,17.00
2007,07,06,01,48,16.90
2007,07,06,01,49,16.90
2007,07,06,01,50,16.80
2007,07,06,01,51,16.80
2007,07,06,01,52,16.70
2007,07,06,01,53,16.70
2007,07,06,01,54,16.60
2007,07,06,01,55,16.60
2007,07,06,01,56,16.60
2007,07,06,01,57,16.50
2007,07,06,01,58,16.50
2007,07,06,01,59,16.50
2007,07,06,02,00,16.50
2007,07,06,02,01,16.50
2007,07,06,02,02,16.50
2007,07,06,02,03,16.50
2007,07,06,02,04,16.50
2007,07,06,02,05,16.50
2007,07,06,02,06,16.50
2007,07,06,02,07,16.60
2007,07,06,02,08,16.60
2007,07,06,02,09,16.60
2007,07,06,02,10,16.70
2007,07,06,02,11,16.80
2007,07,06,02,12,16.90
2007,07,06,02,13,16.90
2007,07,06,02,14,17.00
2007,07,06,02,15,17.00
2007,07,06,02,16,17.10
2007,07,06,02,17,17.10
2007,07,06,02,18,17.10
2007,07,06,02,19,17.10
2007,07,06,02,20,17.10
2007,07,06,02,21,17.10
2007,07,06,02,22,17.10
2007,07,06,02,23,17.10
2007,07,06,02,24,17.10
2007,07,06,02,25,17.10
2007,07,06,02,26,17.10
2007,07,06,02,27,17.00
2007,07,06,02,28,17.00
2007,07,06,02,29,16.90
2007,07,06,02,30,16.90
2007,07,06,02,31,16.90
2007,07,06,02,32,16.90
2007,07,06,02,33,16.80
2007,07,06,02,34,16.80
2007,07,06,02,35,16.80
2007,07,06,02,36,16.80
2007,07,06,02,37,16.80
2007,07,06,02,38,16.80
2007,07,06,02,39,16.80
2007,07,06,02,40,16.80
2007,07,06,02,41,16.80
2007,07,06,02,42,16.80
2007,07,06,02,43,16.70
2007,07,06,02,44,16.70
2007,07,06,02,45,16.70
2007,07,06,02,46,16.70
2007,07,06,02,47,16.70
2007,07,06,02,48,16.70
2007,07,06,02,49,16.70
2007,07,06,02,50,16.70
2007,07,06,02,51,16.70
2007,07,06,02,52,16.70
2007,07,06,02,53,16.70
2007,07,06,02,54,16.60
2007,07,06,02,55,16.60
2007,07,06,02,56,16.60
2007,07,06,02,57,16.60
2007,07,06,02,58,16.60
2007,07,06,02,59,16.60
2007,07,06,03,00,16.60
2007,07,06,03,01,16.70
2007,07,06,03,02,16.70
2007,07,06,03,03,16.80
2007,07,06,03,04,16.80
2007,07,06,03,05,16.80
2007,07,06,03,06,16.80
2007,07,06,03,07,16.80
2007,07,06,03,08,16.80
2007,07,06,03,09,16.80
2007,07,06,03,10,16.80
2007,07,06,03,11,16.80
2007,07,06,03,12,16.80
2007,07,06,03,13,16.80
2007,07,06,03,14,16.80
2007,07,06,03,15,16.80
2007,07,06,03,16,16.80
2007,07,06,03,17,16.80
2007,07,06,03,18,16.80
2007,07,06,03,19,16.80
2007,07,06,03,20,16.80
2007,07,06,03,21,16.80
2007,07,06,03,22,16.80
2007,07,06,03,23,16.80
2007,07,06,03,24,16.70
2007,07,06,03,25,16.70
2007,07,06,03,26,16.70
2007,07,06,03,27,16.70
2007,07,06,03,28,16.70
2007,07,06,03,29,16.60
2007,07,06,03,30,16.50
2007,07,06,03,31,16.40
2007,07,06,03,32,16.40
2007,07,06,03,33,16.30
2007,07,06,03,34,16.20
2007,07,06,03,35,16.10
2007,07,06,03,36,16.00
2007,07,06,03,37,15.90
2007,07,06,03,38,15.80
2007,07,06,03,39,15.70
2007,07,06,03,40,15.70
2007,07,06,03,41,15.60
2007,07,06,03,42,15.60
2007,07,06,03,43,15.50
2007,07,06,03,44,15.50
2007,07,06,03,45,15.40
2007,07,06,03,46,15.30
2007,07,06,03,47,15.20
2007,07,06,03,48,15.20
2007,07,06,03,49,15.10
2007,07,06,03,50,15.00
2007,07,06,03,51,15.00
2007,07,06,03,52,15.00
2007,07,06,03,53,15.00
2007,07,06,03,54,15.00
2007,07,06,03,55,15.00
2007,07,06,03,56,15.00
2007,07,06,03,57,15.00
2007,07,06,03,58,14.90
2007,07,06,03,59,14.80
2007,07,06,04,00,14.80
2007,07,06,04,01,14.70
2007,07,06,04,02,14.70
2007,07,06,04,03,14.70
2007,07,06,04,04,14.70
2007,07,06,04,05,14.70
2007,07,06,04,06,14.70
2007,07,06,04,07,14.70
2007,07,06,04,08,14.70
2007,07,06,04,09,14.70
2007,07,06,04,10,14.70
2007,07,06,04,11,14.80
2007,07,06,04,12,14.80
2007,07,06,04,13,14.80
2007,07,06,04,14,14.80
2007,07,06,04,15,14.90
2007,07,06,04,16,14.90
2007,07,06,04,17,15.00
2007,07,06,04,18,15.00
2007,07,06,04,19,15.00
2007,07,06,04,20,15.00
2007,07,06,04,21,15.00
2007,07,06,04,22,15.00
2007,07,06,04,23,15.00
2007,07,06,04,24,15.00
2007,07,06,04,25,15.00
2007,07,06,04,26,15.00
2007,07,06,04,27,15.00
2007,07,06,04,28,15.00
2007,07,06,04,29,15.00
2007,07,06,04,30,15.00
2007,07,06,04,31,14.90
2007,07,06,04,32,14.80
2007,07,06,04,33,14.80
2007,07,06,04,34,14.70
2007,07,06,04,35,14.70
2007,07,06,04,36,14.70
2007,07,06,04,37,14.60
2007,07,06,04,38,14.60
2007,07,06,04,39,14.60
2007,07,06,04,40,14.60
2007,07,06,04,41,14.70
2007,07,06,04,42,14.70
2007,07,06,04,43,14.70
2007,07,06,04,44,14.80
2007,07,06,04,45,14.80
2007,07,06,04,46,14.80
2007,07,06,04,47,14.80
2007,07,06,04,48,14.80
2007,07,06,04,49,14.80
2007,07,06,04,50,14.70
2007,07,06,04,51,14.70
2007,07,06,04,52,14.70
2007,07,06,04,53,14.70
2007,07,06,04,54,14.70
2007,07,06,04,55,14.60
2007,07,06,04,56,14.60
2007,07,06,04,57,14.60
2007,07,06,04,58,14.60
2007,07,06,04,59,14.60
2007,07,06,05,00,14.50
2007,07,06,05,01,14.50
2007,07,06,05,02,14.40
2007,07,06,05,03,14.40
2007,07,06,05,04,14.40
2007,07,06,05,05,14.40
2007,07,06,05,06,14.30
2007,07,06,05,07,14.30
2007,07,06,05,08,14.30
2007,07,06,05,09,14.30
2007,07,06,05,10,14.20
2007,07,06,05,11,14.20
2007,07,06,05,12,14.10
2007,07,06,05,13,14.00
2007,07,06,05,14,13.90
2007,07,06,05,15,13.80
2007,07,06,05,16,13.80
2007,07,06,05,17,13.70
2007,07,06,05,18,13.60
2007,07,06,05,19,13.60
2007,07,06,05,20,13.50
2007,07,06,05,21,13.40
2007,07,06,05,22,13.40
2007,07,06,05,23,13.40
2007,07,06,05,24,13.40
2007,07,06,05,25,13.40
2007,07,06,05,26,13.40
2007,07,06,05,27,13.40
2007,07,06,05,28,13.30
2007,07,06,05,29,13.30
2007,07,06,05,30,13.30
2007,07,06,05,31,13.30
2007,07,06,05,32,13.20
2007,07,06,05,33,13.30
2007,07,06,05,34,13.40
2007,07,06,05,35,13.50
2007,07,06,05,36,13.50
2007,07,06,05,37,13.60
2007,07,06,05,38,13.60
2007,07,06,05,39,13.80
2007,07,06,05,40,14.00
2007,07,06,05,41,14.20
2007,07,06,05,42,14.30
2007,07,06,05,43,14.50
2007,07,06,05,44,14.70
2007,07,06,05,45,14.80
2007,07,06,05,46,15.00
2007,07,06,05,47,15.00
2007,07,06,05,48,15.00
2007,07,06,05,49,15.00
2007,07,06,05,50,15.00
2007,07,06,05,51,15.10
2007,07,06,05,52,15.10
2007,07,06,05,53,15.10
2007,07,06,05,54,15.10
2007,07,06,05,55,15.10
2007,07,06,05,56,15.10
2007,07,06,05,57,15.10
2007,07,06,05,58,15.00
2007,07,06,05,59,15.00
2007,07,06,06,00,15.00
2007,07,06,06,01,15.00
2007,07,06,06,02,15.00
2007,07,06,06,03,15.00
2007,07,06,06,04,15.00
2007,07,06,06,05,15.00
2007,07,06,06,06,15.00
2007,07,06,06,07,15.00
2007,07,06,06,08,15.00
2007,07,06,06,09,15.00
2007,07,06,06,10,15.00
2007,07,06,06,11,15.00
2007,07,06,06,12,15.00
2007,07,06,06,13,15.10
2007,07,06,06,14,15.10
2007,07,06,06,15,15.10
2007,07,06,06,16,15.20
2007,07,06,06,17,15.20
2007,07,06,06,18,15.30
2007,07,06,06,19,15.30
2007,07,06,06,20,15.30
2007,07,06,06,21,15.30
2007,07,06,06,22,15.30
2007,07,06,06,23,15.40
2007,07,06,06,24,15.40
2007,07,06,06,25,15.40
2007,07,06,06,26,15.50
2007,07,06,06,27,15.60
2007,07,06,06,28,15.60
2007,07,06,06,29,15.70
2007,07,06,06,30,15.80
2007,07,06,06,31,15.80
2007,07,06,06,32,15.90
2007,07,06,06,33,16.00
2007,07,06,06,34,16.10
2007,07,06,06,35,16.20
2007,07,06,06,36,16.20
2007,07,06,06,37,16.30
2007,07,06,06,38,16.40
2007,07,06,06,39,16.50
2007,07,06,06,40,16.60
2007,07,06,06,41,16.70
2007,07,06,06,42,16.80
2007,07,06,06,43,16.90
2007,07,06,06,44,17.00
2007,07,06,06,45,17.00
2007,07,06,06,46,17.10
2007,07,06,06,47,17.20
2007,07,06,06,48,17.20
2007,07,06,06,49,17.30
2007,07,06,06,50,17.30
2007,07,06,06,51,17.40
2007,07,06,06,52,17.40
2007,07,06,06,53,17.50
2007,07,06,06,54,17.60
2007,07,06,06,55,17.60
2007,07,06,06,56,17.70
2007,07,06,06,57,17.70
2007,07,06,06,58,17.80
2007,07,06,06,59,17.80
2007,07,06,07,00,17.80
2007,07,06,07,01,17.90
2007,07,06,07,02,17.90
2007,07,06,07,03,17.90
2007,07,06,07,04,18.00
2007,07,06,07,05,18.00
2007,07,06,07,06,18.00
2007,07,06,07,07,18.10
2007,07,06,07,08,18.10
2007,07,06,07,09,18.10
2007,07,06,07,10,18.20
2007,07,06,07,11,18.20
2007,07,06,07,12,18.20
2007,07,06,07,13,18.10
2007,07,06,07,14,18.20
2007,07,06,07,15,18.20
2007,07,06,07,16,18.20
2007,07,06,07,17,18.20
2007,07,06,07,18,18.20
2007,07,06,07,19,18.30
2007,07,06,07,20,18.30
2007,07,06,07,21,18.40
2007,07,06,07,22,18.40
2007,07,06,07,23,18.40
2007,07,06,07,24,18.50
2007,07,06,07,25,18.50
2007,07,06,07,26,18.50
2007,07,06,07,27,18.50
2007,07,06,07,28,18.40
2007,07,06,07,29,18.40
2007,07,06,07,30,18.40
2007,07,06,07,31,18.40
2007,07,06,07,32,18.40
2007,07,06,07,33,18.40
2007,07,06,07,34,18.50
2007,07,06,07,35,18.50
2007,07,06,07,36,18.50
2007,07,06,07,37,18.60
2007,07,06,07,38,18.60
2007,07,06,07,39,18.60
2007,07,06,07,40,18.60
2007,07,06,07,41,18.70
2007,07,06,07,42,18.70
2007,07,06,07,43,18.70
2007,07,06,07,44,18.70
2007,07,06,07,45,18.80
2007,07,06,07,46,18.80
2007,07,06,07,47,18.80
2007,07,06,07,48,18.70
2007,07,06,07,49,18.60
2007,07,06,07,50,18.60
2007,07,06,07,51,18.50
2007,07,06,07,52,18.40
2007,07,06,07,53,18.40
2007,07,06,07,54,18.30
2007,07,06,07,55,18.20
2007,07,06,07,56,18.20
2007,07,06,07,57,18.20
2007,07,06,07,58,18.20
2007,07,06,07,59,18.30
2007,07,06,08,00,18.40
2007,07,06,08,01,18.40
2007,07,06,08,02,18.30
2007,07,06,08,03,18.30
2007,07,06,08,04,18.20
2007,07,06,08,05,18.20
2007,07,06,08,06,18.20
2007,07,06,08,07,18.20
2007,07,06,08,08,18.10
2007,07,06,08,09,18.20
2007,07,06,08,10,18.20
2007,07,06,08,11,18.20
2007,07,06,08,12,18.30
2007,07,06,08,13,18.30
2007,07,06,08,14,18.30
2007,07,06,08,15,18.40
2007,07,06,08,16,18.40
2007,07,06,08,17,18.40
2007,07,06,08,18,18.40
2007,07,06,08,19,18.40
2007,07,06,08,20,18.40
2007,07,06,08,21,18.50
2007,07,06,08,22,18.60
2007,07,06,08,23,18.60
2007,07,06,08,24,18.70
2007,07,06,08,25,18.70
2007,07,06,08,26,18.70
2007,07,06,08,27,18.70
2007,07,06,08,28,18.70
2007,07,06,08,29,18.70
2007,07,06,08,30,18.80
2007,07,06,08,31,18.80
2007,07,06,08,32,18.80
2007,07,06,08,33,18.80
2007,07,06,08,34,18.70
2007,07,06,08,35,18.70
2007,07,06,08,36,18.60
2007,07,06,08,37,18.50
2007,07,06,08,38,18.40
2007,07,06,08,39,18.40
2007,07,06,08,40,18.40
2007,07,06,08,41,18.30
2007,07,06,08,42,18.30
2007,07,06,08,43,18.40
2007,07,06,08,44,18.50
2007,07,06,08,45,18.60
2007,07,06,08,46,18.60
2007,07,06,08,47,18.60
2007,07,06,08,48,18.60
2007,07,06,08,49,18.60
2007,07,06,08,50,18.50
2007,07,06,08,51,18.50
2007,07,06,08,52,18.50
2007,07,06,08,53,18.50
2007,07,06,08,54,18.40
2007,07,06,08,55,18.40
2007,07,06,08,56,18.40
2007,07,06,08,57,18.50
2007,07,06,08,58,18.50
2007,07,06,08,59,18.60
2007,07,06,09,00,18.60
2007,07,06,09,01,18.60
2007,07,06,09,02,18.60
2007,07,06,09,03,18.70
2007,07,06,09,04,18.70
2007,07,06,09,05,18.70
2007,07,06,09,06,18.80
2007,07,06,09,07,18.90
2007,07,06,09,08,19.00
2007,07,06,09,09,19.00
2007,07,06,09,10,19.10
2007,07,06,09,11,19.10
2007,07,06,09,12,19.10
2007,07,06,09,13,19.00
2007,07,06,09,14,19.10
2007,07,06,09,15,19.00
2007,07,06,09,16,19.10
2007,07,06,09,17,19.10
2007,07,06,09,18,19.20
2007,07,06,09,19,19.20
2007,07,06,09,20,19.20
2007,07,06,09,21,19.20
2007,07,06,09,22,19.20
2007,07,06,09,23,19.30
2007,07,06,09,24,19.30
2007,07,06,09,25,19.30
2007,07,06,09,26,19.20
2007,07,06,09,27,19.10
2007,07,06,09,28,19.00
2007,07,06,09,29,18.90
2007,07,06,09,30,18.80
2007,07,06,09,31,18.70
2007,07,06,09,32,18.60
2007,07,06,09,33,18.60
2007,07,06,09,34,18.60
2007,07,06,09,35,18.60
2007,07,06,09,36,18.70
2007,07,06,09,37,18.80
2007,07,06,09,38,18.90
2007,07,06,09,39,18.90
2007,07,06,09,40,18.80
2007,07,06,09,41,18.80
2007,07,06,09,42,18.80
2007,07,06,09,43,18.90
2007,07,06,09,44,18.90
2007,07,06,09,45,18.90
2007,07,06,09,46,18.90
2007,07,06,09,47,18.90
2007,07,06,09,48,19.00
2007,07,06,09,49,19.00
2007,07,06,09,50,19.00
2007,07,06,09,51,18.90
2007,07,06,09,52,18.90
2007,07,06,09,53,18.90
2007,07,06,09,54,18.90
2007,07,06,09,55,18.90
2007,07,06,09,56,18.90
2007,07,06,09,57,18.90
2007,07,06,09,58,18.90
2007,07,06,09,59,18.90
2007,07,06,10,00,18.90
2007,07,06,10,01,18.90
2007,07,06,10,02,18.90
2007,07,06,10,03,18.90
2007,07,06,10,04,18.90
2007,07,06,10,05,18.90
2007,07,06,10,06,18.90
2007,07,06,10,07,18.90
2007,07,06,10,08,18.90
2007,07,06,10,09,19.10
2007,07,06,10,10,19.20
2007,07,06,10,11,19.30
2007,07,06,10,12,19.30
2007,07,06,10,13,19.30
2007,07,06,10,14,19.20
2007,07,06,10,15,19.20
2007,07,06,10,16,19.20
2007,07,06,10,17,19.20
2007,07,06,10,18,19.20
2007,07,06,10,19,19.20
2007,07,06,10,20,19.20
2007,07,06,10,21,19.20
2007,07,06,10,22,19.10
2007,07,06,10,23,19.00
2007,07,06,10,24,18.90
2007,07,06,10,25,18.80
2007,07,06,10,26,18.80
2007,07,06,10,27,18.80
2007,07,06,10,28,18.90
2007,07,06,10,29,18.90
2007,07,06,10,30,18.90
2007,07,06,10,31,18.90
2007,07,06,10,32,18.90
2007,07,06,10,33,18.90
2007,07,06,10,34,19.00
2007,07,06,10,35,19.10
2007,07,06,10,36,19.10
2007,07,06,10,37,19.10
2007,07,06,10,38,19.10
2007,07,06,10,39,19.10
2007,07,06,10,40,19.10
2007,07,06,10,41,19.10
2007,07,06,10,42,19.10
2007,07,06,10,43,19.20
2007,07,06,10,44,19.30
2007,07,06,10,45,19.30
2007,07,06,10,46,19.30
2007,07,06,10,47,19.40
2007,07,06,10,48,19.40
2007,07,06,10,49,19.40
2007,07,06,10,50,19.40
2007,07,06,10,51,19.50
2007,07,06,10,52,19.50
2007,07,06,10,53,19.60
2007,07,06,10,54,19.60
2007,07,06,10,55,19.60
2007,07,06,10,56,19.50
2007,07,06,10,57,19.50
2007,07,06,10,58,19.40
2007,07,06,10,59,19.30
2007,07,06,11,00,19.20
2007,07,06,11,01,19.20
2007,07,06,11,02,19.20
2007,07,06,11,03,19.10
2007,07,06,11,04,19.10
2007,07,06,11,05,19.10
2007,07,06,11,06,19.10
2007,07,06,11,07,19.10
2007,07,06,11,08,19.10
2007,07,06,11,09,19.10
2007,07,06,11,10,19.20
2007,07,06,11,11,19.20
2007,07,06,11,12,19.30
2007,07,06,11,13,19.30
2007,07,06,11,14,19.30
2007,07,06,11,15,19.30
2007,07,06,11,16,19.30
2007,07,06,11,17,19.30
2007,07,06,11,18,19.30
2007,07,06,11,19,19.30
2007,07,06,11,20,19.30
2007,07,06,11,21,19.30
2007,07,06,11,22,19.40
2007,07,06,11,23,19.50
2007,07,06,11,24,19.50
2007,07,06,11,25,19.70
2007,07,06,11,26,19.80
2007,07,06,11,27,19.90
2007,07,06,11,28,19.90
2007,07,06,11,29,19.90
2007,07,06,11,30,19.90
2007,07,06,11,31,19.90
2007,07,06,11,32,19.90
2007,07,06,11,33,20.00
2007,07,06,11,34,20.00
2007,07,06,11,35,20.00
2007,07,06,11,36,20.00
2007,07,06,11,37,20.00
2007,07,06,11,38,20.10
2007,07,06,11,39,20.10
2007,07,06,11,40,20.10
2007,07,06,11,41,20.20
2007,07,06,11,42,20.20
2007,07,06,11,43,20.20
2007,07,06,11,44,20.20
2007,07,06,11,45,20.20
2007,07,06,11,46,20.30
2007,07,06,11,47,20.30
2007,07,06,11,48,20.40
2007,07,06,11,49,20.40
2007,07,06,11,50,20.40
2007,07,06,11,51,20.40
2007,07,06,11,52,20.40
2007,07,06,11,53,20.40
2007,07,06,11,54,20.40
2007,07,06,11,55,20.30
2007,07,06,11,56,20.30
2007,07,06,11,57,20.30
2007,07,06,11,58,20.30
2007,07,06,11,59,20.20
2007,07,06,12,00,20.30
2007,07,06,12,01,20.40
2007,07,06,12,02,20.60
2007,07,06,12,03,20.70
2007,07,06,12,04,20.80
2007,07,06,12,05,20.90
2007,07,06,12,06,20.90
2007,07,06,12,07,20.80
2007,07,06,12,08,20.80
2007,07,06,12,09,20.70
2007,07,06,12,10,20.60
2007,07,06,12,11,20.60
2007,07,06,12,12,20.50
2007,07,06,12,13,20.50
2007,07,06,12,14,20.60
2007,07,06,12,15,20.50
2007,07,06,12,16,20.30
2007,07,06,12,17,20.20
2007,07,06,12,18,20.30
2007,07,06,12,19,20.30
2007,07,06,12,20,20.30
2007,07,06,12,21,20.40
2007,07,06,12,22,20.30
2007,07,06,12,23,20.30
2007,07,06,12,24,20.30
2007,07,06,12,25,20.20
2007,07,06,12,26,20.20
2007,07,06,12,27,20.10
2007,07,06,12,28,20.10
2007,07,06,12,29,20.00
2007,07,06,12,30,20.00
2007,07,06,12,31,20.00
2007,07,06,12,32,20.10
2007,07,06,12,33,20.20
2007,07,06,12,34,20.30
2007,07,06,12,35,20.30
2007,07,06,12,36,20.30
2007,07,06,12,37,20.20
2007,07,06,12,38,20.10
2007,07,06,12,39,20.00
2007,07,06,12,40,20.00
2007,07,06,12,41,19.90
2007,07,06,12,42,19.90
2007,07,06,12,43,19.80
2007,07,06,12,44,19.90
2007,07,06,12,45,19.90
2007,07,06,12,46,20.10
2007,07,06,12,47,20.20
2007,07,06,12,48,20.20
2007,07,06,12,49,20.30
2007,07,06,12,50,20.40
2007,07,06,12,51,20.50
2007,07,06,12,52,20.60
2007,07,06,12,53,20.70
2007,07,06,12,54,20.90
2007,07,06,12,55,21.00
2007,07,06,12,56,21.00
2007,07,06,12,57,21.00
2007,07,06,12,58,21.00
2007,07,06,12,59,21.10
2007,07,06,13,00,21.10
2007,07,06,13,01,21.20
2007,07,06,13,02,21.10
2007,07,06,13,03,21.00
2007,07,06,13,04,20.90
2007,07,06,13,05,20.90
2007,07,06,13,06,20.80
2007,07,06,13,07,20.80
2007,07,06,13,08,20.90
2007,07,06,13,09,20.90
2007,07,06,13,10,20.90
2007,07,06,13,11,20.90
2007,07,06,13,12,20.90
2007,07,06,13,13,20.90
2007,07,06,13,14,21.00
2007,07,06,13,15,21.10
2007,07,06,13,16,21.20
2007,07,06,13,17,21.20
2007,07,06,13,18,21.20
2007,07,06,13,19,21.30
2007,07,06,13,20,21.30
2007,07,06,13,21,21.30
2007,07,06,13,22,21.30
2007,07,06,13,23,21.20
2007,07,06,13,24,21.20
2007,07,06,13,25,21.10
2007,07,06,13,26,21.00
2007,07,06,13,27,20.90
2007,07,06,13,28,20.90
2007,07,06,13,29,20.90
2007,07,06,13,30,20.90
2007,07,06,13,31,20.90
2007,07,06,13,32,20.80
2007,07,06,13,33,20.70
2007,07,06,13,34,20.70
2007,07,06,13,35,20.70
2007,07,06,13,36,20.70
2007,07,06,13,37,20.70
2007,07,06,13,38,20.70
2007,07,06,13,39,20.70
2007,07,06,13,40,20.70
2007,07,06,13,41,20.70
2007,07,06,13,42,20.70
2007,07,06,13,43,20.70
2007,07,06,13,44,20.70
2007,07,06,13,45,20.70
2007,07,06,13,46,20.70
2007,07,06,13,47,20.80
2007,07,06,13,48,20.80
2007,07,06,13,49,20.80
2007,07,06,13,50,20.80
2007,07,06,13,51,20.90
2007,07,06,13,52,20.90
2007,07,06,13,53,20.90
2007,07,06,13,54,20.80
2007,07,06,13,55,20.80
2007,07,06,13,56,20.70
2007,07,06,13,57,20.70
2007,07,06,13,58,20.70
2007,07,06,13,59,20.70
2007,07,06,14,00,20.80
2007,07,06,14,01,20.80
2007,07,06,14,02,20.80
2007,07,06,14,03,20.80
2007,07,06,14,04,20.80
2007,07,06,14,05,20.80
2007,07,06,14,06,20.90
2007,07,06,14,07,20.90
2007,07,06,14,08,20.90
2007,07,06,14,09,20.90
2007,07,06,14,10,21.00
2007,07,06,14,11,21.10
2007,07,06,14,12,21.20
2007,07,06,14,13,21.30
2007,07,06,14,14,21.30
2007,07,06,14,15,21.30
2007,07,06,14,16,21.30
2007,07,06,14,17,21.30
2007,07,06,14,18,21.30
2007,07,06,14,19,21.30
2007,07,06,14,20,21.30
2007,07,06,14,21,21.30
2007,07,06,14,22,21.30
2007,07,06,14,23,21.30
2007,07,06,14,24,21.30
2007,07,06,14,25,21.30
2007,07,06,14,26,21.30
2007,07,06,14,27,21.30
2007,07,06,14,28,21.30
2007,07,06,14,29,21.30
2007,07,06,14,30,21.40
2007,07,06,14,31,21.40
2007,07,06,14,32,21.40
2007,07,06,14,33,21.40
2007,07,06,14,34,21.40
2007,07,06,14,35,21.50
2007,07,06,14,36,21.60
2007,07,06,14,37,21.70
2007,07,06,14,38,21.80
2007,07,06,14,39,21.80
2007,07,06,14,40,21.80
2007,07,06,14,41,21.80
2007,07,06,14,42,21.80
2007,07,06,14,43,21.90
2007,07,06,14,44,22.00
2007,07,06,14,45,22.00
2007,07,06,14,46,22.00
2007,07,06,14,47,21.90
2007,07,06,14,48,21.90
2007,07,06,14,49,21.80
2007,07,06,14,50,21.80
2007,07,06,14,51,21.80
2007,07,06,14,52,22.00
2007,07,06,14,53,22.10
2007,07,06,14,54,22.00
2007,07,06,14,55,21.90
2007,07,06,14,56,21.90
2007,07,06,14,57,21.90
2007,07,06,14,58,21.90
2007,07,06,14,59,22.00
2007,07,06,15,00,22.00
2007,07,06,15,01,22.00
2007,07,06,15,02,22.10
2007,07,06,15,03,22.10
2007,07,06,15,04,22.00
2007,07,06,15,05,21.90
2007,07,06,15,06,22.00
2007,07,06,15,07,22.10
2007,07,06,15,08,22.10
2007,07,06,15,09,22.20
2007,07,06,15,10,22.30
2007,07,06,15,11,22.50
2007,07,06,15,12,22.60
2007,07,06,15,13,22.60
2007,07,06,15,14,22.60
2007,07,06,15,15,22.60
2007,07,06,15,16,22.60
2007,07,06,15,17,22.70
2007,07,06,15,18,22.70
2007,07,06,15,19,22.80
2007,07,06,15,20,23.00
2007,07,06,15,21,23.00
2007,07,06,15,22,23.00
2007,07,06,15,23,23.00
2007,07,06,15,24,22.90
2007,07,06,15,25,22.90
2007,07,06,15,26,22.80
2007,07,06,15,27,22.70
2007,07,06,15,28,22.80
2007,07,06,15,29,22.80
2007,07,06,15,30,22.90
2007,07,06,15,31,22.80
2007,07,06,15,32,22.80
2007,07,06,15,33,22.80
2007,07,06,15,34,22.80
2007,07,06,15,35,22.80
2007,07,06,15,36,22.90
2007,07,06,15,37,22.90
2007,07,06,15,38,22.90
2007,07,06,15,39,23.00
2007,07,06,15,40,22.90
2007,07,06,15,41,22.80
2007,07,06,15,42,22.80
2007,07,06,15,43,22.80
2007,07,06,15,44,22.90
2007,07,06,15,45,23.00
2007,07,06,15,46,23.10
2007,07,06,15,47,23.10
2007,07,06,15,48,23.00
2007,07,06,15,49,22.90
2007,07,06,15,50,22.80
2007,07,06,15,51,22.70
2007,07,06,15,52,22.70
2007,07,06,15,53,22.60
2007,07,06,15,54,22.70
2007,07,06,15,55,22.70
2007,07,06,15,56,22.80
2007,07,06,15,57,22.80
2007,07,06,15,58,22.80
2007,07,06,15,59,22.80
2007,07,06,16,00,22.80
2007,07,06,16,01,22.70
2007,07,06,16,02,22.60
2007,07,06,16,03,22.60
2007,07,06,16,04,22.60
2007,07,06,16,05,22.70
2007,07,06,16,06,22.80
2007,07,06,16,07,22.90
2007,07,06,16,08,23.00
2007,07,06,16,09,23.10
2007,07,06,16,10,23.00
2007,07,06,16,11,23.00
2007,07,06,16,12,23.10
2007,07,06,16,13,23.00
2007,07,06,16,14,23.00
2007,07,06,16,15,23.00
2007,07,06,16,16,23.10
2007,07,06,16,17,23.20
2007,07,06,16,18,23.40
2007,07,06,16,19,23.40
2007,07,06,16,20,23.40
2007,07,06,16,21,23.40
2007,07,06,16,22,23.40
2007,07,06,16,23,23.50
2007,07,06,16,24,23.60
2007,07,06,16,25,23.50
2007,07,06,16,26,23.50
2007,07,06,16,27,23.50
2007,07,06,16,28,23.50
2007,07,06,16,29,23.50
2007,07,06,16,30,23.50
2007,07,06,16,31,23.40
2007,07,06,16,32,23.30
2007,07,06,16,33,23.10
2007,07,06,16,34,23.10
2007,07,06,16,35,23.10
2007,07,06,16,36,23.10
2007,07,06,16,37,23.20
2007,07,06,16,38,23.20
2007,07,06,16,39,23.20
2007,07,06,16,40,23.20
2007,07,06,16,41,23.20
2007,07,06,16,42,23.20
2007,07,06,16,43,23.30
2007,07,06,16,44,23.30
2007,07,06,16,45,23.40
2007,07,06,16,46,23.40
2007,07,06,16,47,23.40
2007,07,06,16,48,23.40
2007,07,06,16,49,23.30
2007,07,06,16,50,23.30
2007,07,06,16,51,23.30
2007,07,06,16,52,23.30
2007,07,06,16,53,23.30
2007,07,06,16,54,23.40
2007,07,06,16,55,23.40
2007,07,06,16,56,23.50
2007,07,06,16,57,23.50
2007,07,06,16,58,23.50
2007,07,06,16,59,23.50
2007,07,06,17,00,23.50
2007,07,06,17,01,23.60
2007,07,06,17,02,23.70
2007,07,06,17,03,23.70
2007,07,06,17,04,23.70
2007,07,06,17,05,23.80
2007,07,06,17,06,23.80
2007,07,06,17,07,23.70
2007,07,06,17,08,23.70
2007,07,06,17,09,23.70
2007,07,06,17,10,23.70
2007,07,06,17,11,23.70
2007,07,06,17,12,23.70
2007,07,06,17,13,23.60
2007,07,06,17,14,23.70
2007,07,06,17,15,23.70
2007,07,06,17,16,23.60
2007,07,06,17,17,23.60
2007,07,06,17,18,23.60
2007,07,06,17,19,23.60